SCP
0 0 0 0 0 0 0 0 0 0 0 0 0 0 0 0 0 0 0 0 0 0 0 0 0 0 0 0 0 0 0 0 0 0 0 0 0 0 0 0 0 0 0
0 0 0 0 0 0 0 0 0 0 0 0 0 0 0 0 0 0 0 0 0 0 0 0 0 0 0 0 0 0 0 0 0 0 0 0 0 0 0 0 0 0 0
0 0 0 0 0 0 0 0 0 0 0 0 0 0 0 0 0 0 0 0 0 0 0 0 0 0 0 0 0 0 0 0 0 0 0 0 0 0 0 0 0 0 0
0 0 0 0 0 0 0 0 0 0 0 0 0 0 0 0 0 0 0 0 0 0 0 0 0 0 0 0 0 0 0 0 0 0 0 0 0 0 0 0 0 0 0
0 0 0 0 0 0 0 0 0 0 0 0 0 0 0 0 0 0 0 0 0 0 0 0 0 0 0 0 0 0 0 0 0 0 0 0 0 0 0 0 0 0 0
0 0 0 0 0 0 0 0 0 0 0 0 0 0 0 0 0 0 0 0 0 0 0 0 0 0 0 0 0 0 0 0 0 0 0 0 0 0 0 0 0 0 0
0 0 0 0 0 0 0 0 0 0 0 0 0 0 0 0 0 0 0 0 0 0 0 0 0 0 0 0 0 0 0 0 0 0 0 0 0 0 0 0 0 0 0
0 0 0 0 0 0 0 0 0 0 0 0 0 0 0 0 0 0 0 0 0 0 0 0 0 0 0 0 0 0 0 0 0 0 0 0 0 0 0 0 0 0 0
0 0 0 0 0 0 0 0 0 0 0 0 0 0 0 0 0 0 0 0 0 0 0 0 0 0 0 0 0 0 0 0 0 0 0 0 0 0 0 0 0 0 0
0 0 0 0 0 0 0 0 0 0 0 0 0 0 0 0 0 0 0 0 0 0 -0 -0 -0 -0 -0 -0 0 0 0 0 0 0 0 0 0 0 0 0 0 0 0
0 0 0 0 0 0 0 0 0 0 0 0 0 0 0 0 0 0 0 0 0 0 -0 -0 0 0 -0 -0 -0 0 0 0 0 0 0 0 0 0 0 0 0 0 0
0 0 0 0 0 0 0 0 0 0 0 0 0 0 0 0 0 0 0 0 0 0 0 0 0 0 -0 -0 -0 0 0 0 0 0 0 0 0 0 0 0 0 0 0
0 0 0 0 0 0 0 0 0 0 0 0 0 0 0 0 0 0 0 0 0 0 0 0 0 0 0 -0 -0 -0 0 0 0 0 0 0 0 0 0 0 0 0 0
0 0 0 0 0 0 0 0 0 0 0 0 0 0 0 0 0 0 0 0 0 0 0 0 0 0 0 -0 -0 0 0 0 0 0 0 0 0 0 0 0 0 0 0
0 0 0 0 0 0 0 0 0 0 0 0 0 0 0 0 0 0 0 0 0 0 0 0 0 0 0 0 0 0 0 0 0 0 0 0 0 0 0 0 0 0 0
0 0 0 0 0 0 0 0 0 0 0 0 0 0 0 0 0 0 0 0 0 0 0 0 0 0 0 0 0 0 0 0 0 0 0 0 0 0 0 0 0 0 0
0 0 0 0 0 0 0 0 0 0 0 0 0 0 0 0 0 0 0 0 0 0 0 0 0 0 0 0 0 0 0 0 0 0 0 0 0 0 0 0 0 0 0
0 0 0 0 0 0 0 0 0 0 0 0 0 0 0 0 0 0 0 0 0 0 0 0 0 0 0 0 0 0 0 0 0 0 0 0 0 0 0 0 0 0 0
0 0 0 0 0 0 0 0 0 0 0 0 0 0 0 0 0 0 0 0 0 0 0 0 0 0 0 0 0 0 0 0 0 0 0 0 0 0 0 0 0 0 0
0 0 0 0 0 0 0 0 0 0 0 0 0 0 0 0 0 0 0 0 0 0 0 0 0 0 0 0 0 0 0 0 -0 -0 0 0 0 0 0 0 0 0 0
0 0 0 0 0 0 0 0 0 0 0 0 0 0 0 0 0 0 0 0 0 0 0 0 0 0 0 0 0 0 0 0 -0 0 0 0 0 0 0 0 0 0 0
0 0 0 0 0 0 0 0 0 0 0 0 0 0 0 0 0 0 0 0 0 0 0 0 0 0 0 0 0 0 0 0 0 0 0 0 0 0 0 0 0 0 0
0 0 0 0 0 0 0 0 0 0 0 0 0 0 0 0 0 0 0 0 0 0 0 0 0 0 0 0 0 0 0 0 0 0 0 0 0 0 0 0 0 0 0
0 0 0 0 0 0 0 0 0 0 0 0 0 0 0 0 0 0 0 0 0 0 0 0 0 0 0 0 0 0 0 0 0 0 0 0 0 0 0 0 0 0 0
0 0 0 0 0 0 0 0 0 0 0 0 0 0 0 0 0 0 0 0 0 0 0 0 0 0 0 0 0 0 0 0 0 0 0 0 0 0 0 0 0 0 0
0 0 0 0 0 0 0 0 0 0 0 0 0 0 0 0 0 0 0 0 0 0 0 0 0 0 0 0 0 0 0 0 0 0 0 0 0 0 0 0 0 0 0
Wind_Speed
5 4 4 3 4 3 3 3 3 4 4 4 3 4 4 4 3 3 3 4 3 3 4 4 4 4 5 4 4 4 5 5 5 5 5 5 5 5 4 4 4 5 5
4 4 4 4 4 3 3 3 4 4 3 3 3 3 3 3 3 3 3 4 4 3 4 4 4 4 4 4 4 3 4 4 4 4 4 4 4 4 4 4 4 4 4
5 5 4 4 4 4 4 3 4 3 3 3 3 3 2 3 3 3 3 3 3 4 4 4 4 4 3 3 3 3 2 3 4 4 4 3 3 3 3 2 3 3 3
6 5 4 4 4 4 4 4 4 4 3 3 3 2 2 2 2 3 2 2 2 2 4 5 4 3 3 2 2 2 2 2 3 3 3 3 2 2 2 2 2 2 3
6 5 4 4 5 4 4 4 4 4 4 3 2 2 1 1 1 2 2 2 2 2 2 4 4 3 2 1 1 1 1 2 2 2 2 2 2 2 1 1 1 2 3
6 5 4 5 6 5 4 5 5 4 4 4 3 2 1 1 1 1 2 2 2 2 2 2 3 3 2 1 0 1 2 1 1 2 1 1 1 1 1 0 1 2 3
7 6 4 6 6 5 6 6 5 6 4 4 3 2 1 1 1 1 1 2 2 2 2 2 1 2 2 2 0 1 2 2 2 2 1 1 1 1 2 2 2 2 3
7 6 6 5 6 5 6 7 6 5 4 4 3 3 3 3 2 1 1 2 2 2 2 1 1 1 1 1 1 0 2 3 3 3 2 2 2 2 2 3 3 3 4
7 7 7 6 6 6 6 7 8 8 6 5 4 3 3 4 3 3 3 3 3 2 2 1 1 1 1 1 1 1 2 3 4 4 3 3 4 4 4 4 4 4 5
7 7 7 7 7 6 7 7 7 6 7 6 4 3 2 1 3 3 3 3 3 4 3 2 2 2 2 1 0 1 2 3 5 5 5 5 5 5 5 5 6 6 6
6 7 7 7 7 6 7 8 7 7 6 6 5 4 2 1 2 2 3 4 4 4 4 4 3 3 2 2 2 1 3 4 5 5 6 6 6 6 6 7 7 7 6
5 7 7 7 7 6 7 7 8 8 7 7 6 5 4 3 3 3 2 3 3 3 4 4 4 3 3 2 2 1 3 4 5 6 6 7 7 7 7 8 7 7 7
5 7 7 7 6 7 7 7 7 7 8 8 7 5 5 4 3 3 2 2 2 2 4 4 4 4 3 3 2 2 3 4 5 6 7 7 6 6 7 7 8 8 8
6 7 8 7 7 7 7 7 6 7 6 7 7 7 5 4 3 3 3 2 2 2 4 4 4 4 3 3 2 4 3 3 5 6 7 7 6 6 7 8 8 8 9
6 8 8 8 8 7 8 7 6 7 7 7 6 7 5 4 4 3 3 3 3 3 4 4 3 4 3 3 3 4 4 4 5 6 6 6 6 7 7 8 8 9 9
7 8 8 8 8 7 7 8 7 7 7 7 5 7 6 4 4 4 4 3 3 4 3 3 3 3 3 3 4 5 4 4 6 6 6 7 7 7 8 8 9 9 9
7 8 8 8 8 8 8 8 8 8 8 7 7 7 7 6 5 4 4 4 4 3 4 2 2 3 4 5 4 4 4 4 4 6 7 8 8 8 8 9 9 10 10
7 7 8 8 8 9 9 9 9 9 9 9 8 8 8 6 6 5 4 5 4 4 4 4 3 3 4 5 4 4 4 4 4 5 7 8 8 9 9 9 10 10 10
7 7 8 8 9 9 9 9 9 9 9 9 9 9 8 8 7 6 6 5 4 3 3 4 3 2 2 3 4 4 4 4 4 4 7 7 8 8 9 10 10 10 10
7 7 7 8 8 8 9 9 9 9 9 9 8 8 8 8 8 7 6 7 5 5 4 4 3 3 2 3 3 4 3 3 4 4 5 5 7 8 8 9 9 9 9
6 6 7 7 7 7 7 9 9 9 9 8 8 8 8 8 8 7 6 7 6 5 4 4 3 3 3 3 4 4 4 3 4 4 4 4 5 5 5 6 7 7 9
5 6 7 7 7 6 7 9 8 8 8 9 8 8 7 8 8 9 8 8 8 7 6 5 4 5 5 5 4 4 3 3 4 3 4 5 4 5 4 4 5 7 8
5 6 6 7 7 7 8 10 9 8 8 8 8 7 5 6 8 7 8 8 8 9 8 7 7 7 6 5 5 5 5 5 5 3 3 5 4 5 5 4 7 8 9
4 5 5 6 6 6 8 9 9 8 7 8 8 8 7 7 7 7 6 7 7 7 7 6 6 6 5 4 5 5 5 4 4 3 4 4 4 5 5 5 7 8 9
3 3 4 4 5 5 7 8 8 6 6 7 7 7 8 7 8 8 7 6 6 5 4 5 5 4 4 4 4 3 3 3 4 3 3 3 3 4 5 5 5 7 9
3 3 3 3 4 4 6 7 8 5 5 5 5 6 7 7 8 9 7 7 7 5 3 3 3 3 4 4 6 5 4 4 3 3 2 3 3 2 4 3 3 4 5
Wind_Direction
173 169 165 164 166 162 165 165 166 160 161 157 154 156 154 148 138 129 111 84 86 112 122 120 118 123 127 124 112 110 114 110 104 101 99 97 89 78 74 68 66 61 55
169 169 166 167 166 166 167 171 167 163 159 155 151 153 153 148 144 141 130 112 89 91 109 112 104 112 129 128 128 117 116 113 112 112 109 103 94 84 79 71 66 61 53
173 171 170 170 169 168 163 163 158 163 154 149 145 142 144 149 146 145 139 128 118 93 96 107 104 95 103 116 118 111 109 125 119 118 117 110 100 89 83 72 65 55 44
179 177 173 171 167 167 167 164 162 162 156 153 143 137 137 138 153 146 141 137 135 132 103 90 96 99 93 86 85 86 69 111 116 111 113 106 97 88 82 73 58 39 28
183 182 179 170 168 168 172 171 171 168 161 149 136 133 135 155 155 158 151 138 134 143 136 108 95 81 76 64 33 34 39 65 119 122 119 120 110 97 84 64 30 7 -0
186 186 180 174 171 173 173 175 173 172 165 150 132 113 103 151 178 181 172 156 151 154 153 148 144 116 101 104 2 332 331 342 137 135 133 148 175 176 171 275 322 331 336
188 188 182 177 181 182 179 177 168 165 161 150 140 136 129 179 213 203 204 192 174 174 169 172 172 174 144 131 124 300 306 305 269 198 190 190 231 258 257 263 288 306 316
189 191 186 184 186 184 182 180 172 169 169 181 180 171 182 194 206 219 226 220 197 176 177 182 176 187 201 197 107 327 300 301 297 248 227 231 248 263 272 281 286 292 304
192 192 191 188 191 189 186 188 185 180 177 192 202 198 195 202 184 197 216 213 203 192 189 179 188 200 212 225 207 174 320 302 287 260 251 250 256 263 264 271 283 289 294
200 195 195 193 195 196 191 193 193 192 185 188 200 237 275 208 195 186 199 213 218 217 207 198 199 200 204 217 255 328 315 307 283 268 259 258 261 264 265 272 279 283 286
206 201 198 196 198 200 198 196 194 196 198 195 194 198 201 222 233 216 204 202 212 222 222 216 212 208 204 213 227 294 292 299 294 278 272 266 268 271 274 276 277 281 288
203 205 201 199 199 201 201 201 198 198 202 203 201 205 203 203 212 223 220 205 214 211 219 219 220 214 211 219 222 295 283 293 298 288 281 277 275 275 282 280 279 283 286
204 205 201 201 200 202 203 203 202 202 205 206 205 210 215 220 213 221 209 203 221 217 219 217 217 216 213 219 210 237 251 284 296 293 288 283 286 287 287 282 280 280 281
208 206 203 203 204 202 203 203 205 206 206 209 211 212 212 212 206 211 207 195 211 225 223 216 209 214 211 215 216 236 236 263 285 291 293 284 291 292 287 284 282 283 282
208 206 204 202 205 204 204 203 207 207 206 208 210 211 213 209 206 216 214 214 217 229 228 213 208 210 210 217 204 231 244 252 271 282 295 289 288 288 283 281 280 280 283
206 204 204 203 203 204 207 207 208 208 207 208 207 208 213 210 207 210 210 221 233 239 240 217 218 211 210 221 217 232 242 254 256 268 283 283 276 276 274 275 277 276 278
202 206 206 203 203 204 205 207 208 206 209 208 208 209 211 210 207 209 211 215 223 229 238 240 228 215 216 220 220 235 241 246 249 258 270 276 268 266 269 272 274 275 276
203 205 205 205 206 207 207 207 207 207 209 210 209 209 211 207 210 210 210 215 220 223 230 237 222 221 229 225 230 237 242 248 256 261 264 271 267 264 266 268 271 274 274
202 203 203 206 208 208 209 210 210 211 212 212 210 209 208 205 208 211 213 216 220 222 231 230 227 222 232 226 236 243 247 252 258 260 256 260 265 267 266 264 265 269 271
201 203 205 209 212 211 210 210 210 212 214 213 213 211 210 209 211 210 213 217 214 214 221 222 226 228 226 227 235 240 247 249 258 262 254 261 268 267 265 264 263 265 268
201 202 206 210 213 212 211 210 209 212 213 211 213 214 214 216 221 216 214 213 209 211 214 217 221 230 224 222 232 235 244 255 263 253 261 265 268 260 256 258 260 264 269
198 198 203 206 210 213 206 206 209 209 210 210 211 213 213 212 215 218 220 219 216 213 212 218 225 227 232 235 235 236 239 247 259 239 264 271 271 270 266 263 270 275 274
200 201 203 203 208 209 200 200 205 209 211 212 212 209 208 212 211 216 215 217 222 226 224 225 229 232 232 229 228 234 235 247 260 260 258 267 268 272 276 273 271 271 274
203 204 204 206 210 206 199 200 199 210 213 214 214 213 210 209 208 212 212 217 223 225 228 230 234 237 238 231 228 238 247 260 279 264 241 256 268 275 281 275 264 263 269
202 206 206 205 208 206 198 197 196 208 213 217 217 216 214 212 208 206 209 214 222 228 233 236 248 249 243 233 232 231 224 236 262 260 237 247 265 285 282 271 264 266 272
198 198 201 210 212 213 197 196 199 206 210 212 214 216 216 216 209 204 210 211 217 221 212 208 225 231 230 216 217 226 223 231 254 257 220 238 262 282 280 266 275 275 272